Tracking 19730 objects as of 27-Jun-2019
HD Live streaming from Space Station
objects crossing your sky now

SL-8 DEB

Track SL-8 DEB now!
10-day predictions


NORAD ID: 25563
Int'l Code: 1990-111D
Perigee: 756.7 km
Apogee: 787.4 km
Inclination: 74.1 °
Period: 100.1 minutes
Semi major axis: 7143 km
RCS: 0.0108 m2 (small)
Launch date: December 10, 1990
Source: Commonwealth of Independent States (former USSR) (CIS)
Launch site: PLESETSK MISSILE AND SPACE COMPLEX (PKMTR)

Note: This is SATELLITE DEBRIS
aabbcc
Your satellite tracking list
Your tracking list is empty




NASA's NSSDC Master Catalog

Two Line Element Set (TLE):
1 25563U 90111D   19177.44755931 +.00000097 +00000-0 +40598-4 0  9992
2 25563 074.0510 297.8679 0021450 301.7078 126.6343 14.38057499491713
Source of the keplerian elements: AFSPC